STARLINK-31997, 60288

Orbit data source: Space-Track

STARLINK-31997, 60288 is a payload satellite owned by SpaceX/Seattle (US) in LEO that was launched on Sun, 28 Jul 2024 UTC via an FALCON 9 launch vehicle from the Air Force Eastern Test Range (AFETR). Payloads include a variety of satellites, spacecraft, and rockets equipped with specific instruments for various scientific and technological missions. These include communications satellites like Starlink; space stations such as the ISS; scientific satellites like the Hubble; Earth observation satellites from companies like Planet Labs, Umbra, and HawkEye 360; GPS; miniature CubeSats for education and research; and military/defense satellites.

Loading next visibility...
STARLINK-31997 details
Identifier
60288, 2024-132L
Orbit
LEO
Last TLE update22 hours ago
Origin
Flag of USSpaceX/Seattle (US)
ManufacturerSpaceX/Seattle
MissionOperational spacecraft
Bus & MotorSTARLINK V2M, Unknown motor
Mass730 kg wet, ~700 kg dry
Launch date (UTC)
2024-07-28 (5 months ago)
Launch vehicle
FALCON 9
Launch site
Air Force Eastern Test Range (AFETR)
Object type
Payload
Rocket body
Debris
Shape & HBRUnknown
Radar Cross SectionLarge (>1 m²)

Expand to show TLE details & history

TLE from 22 hours ago
0 STARLINK-31997
1 60288U 24132L   24355.60548638  .00001042  00000-0  47308-4 0  9998
2 60288  53.1613 314.8353 0001189 101.6026 258.5108 15.30184611 23573
Epoch: 2024-12-20T14:31Z
Definitive object data (Epoch: 2024-12-20T14:31:54.023Z)
Latitude-0.00003°
Longitude7.19159°
Altitude476.323 km
Speed7.629 km/s
True Right ascension20h 59m 20s
True Declination0° 00' 00"
Sunlit
Object was in daylight at TLE epoch
Visualization TLE readout
Latitude48.63812°
Longitude125.05142°
Altitude479.953 km
Speed7.632 km/s
Apparent Right ascension02h 18m 40s
Apparent Declination7° 53' 37"
Sunlit
Object is in full shadow
Visualization observer readout
Local Sidereal Time11:59:25
Azimuth317.959° NNW
Elevation-32.386°
Doppler factor1
Orbital elements
Apogee altitude476.332 km
Perigee altitude474.702 km
Semi-major axis6,853.654 km
Eccentricity0.0001189
Inclination53.1613°
RAAN314.8353°
Arg. of periapsis101.6026°
True anomaly258.49745°
Mean anomaly258.5108°
Eccentric anomaly258.50412°
Mean motion3.82525 °/min
BSTAR0.000047308
Orbital period94.11 mins
Loading maneuver chart data...
Loading historical data...
Loading historical data...
Loading historical data...
Loading historical data...
Loading historical data...
Loading historical data...
Loading historical data...

STARLINK-31997 Visibility forecast

Observer location: undefined°, undefined

Span
Click to sort rows by Start time (UTC) header in descending order
Start Az.
Max El. time (UTC)
Max El. Az.
Max El.
End time (UTC)
End Az.
7 mins2024-12-21 23:36:31.936Z211.47° SW2024-12-21 23:39:31.936Z163.903° S36.406°2024-12-21 23:43:31.936Z59.141° ENE
4 mins2024-12-22 01:16:31.936Z295.989° NW2024-12-22 01:18:31.936Z345.168° N21.884°2024-12-22 01:20:31.936Z23.118° NE
5 mins2024-12-22 06:12:31.936Z327.208° NNW2024-12-22 06:14:31.936Z11.727° NNE34.064°2024-12-22 06:17:31.936Z103.101° ESE
|